DW6352 Weather Reports


time (UTC)temp
C
wind
direction
speed
KPH
gust
KPH
rain 1hr
cm
rain 24hr
cm
rain mn
cm
humidity
%
barometer
mb
20200922215010 26 131 3.2 8.0 0.00 0.00 0.00 53 1016.7
20200922214517 26 129 4.8 11.3 0.00 0.00 0.00 54 1016.7
20200922214019 26 128 4.8 11.3 0.00 0.00 0.00 53 1016.8
20200922213510 27 130 4.8 11.3 0.00 0.00 0.00 52 1016.8
20200922213019 27 145 3.2 11.3 0.00 0.00 0.00 51 1016.8
20200922212513 27 152 3.2 8.0 0.00 0.00 0.00 50 1016.8
20200922212020 27 187 3.2 8.0 0.00 0.00 0.00 52 1016.8
20200922211520 27 167 4.8 9.7 0.00 0.00 0.00 52 1016.8
20200922211020 27 137 4.8 14.5 0.00 0.00 0.00 52 1016.8
20200922210515 27 136 3.2 14.5 0.00 0.00 0.00 52 1016.9
20200922210021 27 129 3.2 9.7 0.00 0.00 0.00 51 1017.0
20200922205511 27 114 3.2 8.0 0.00 0.00 0.00 50 1017.1
20200922205012 27 116 4.8 12.9 0.00 0.00 0.00 50 1017.1
20200922204517 27 134 4.8 12.9 0.00 0.00 0.00 50 1017.2
20200922204012 27 149 3.2 8.0 0.00 0.00 0.00 49 1017.2
20200922203512 27 146 3.2 8.0 0.00 0.00 0.00 51 1017.2
20200922203026 27 159 3.2 9.7 0.00 0.00 0.00 50 1017.3
20200922202510 27 149 4.8 11.3 0.00 0.00 0.00 48 1017.3
20200922202010 27 146 4.8 11.3 0.00 0.00 0.00 48 1017.4
20200922201518 27 142 4.8 12.9 0.00 0.00 0.00 49 1017.4
20200922201016 27 136 4.8 12.9 0.00 0.00 0.00 49 1017.5
20200922200510 27 146 3.2 9.7 0.00 0.00 0.00 48 1017.5
20200922200025 27 161 3.2 9.7 0.00 0.00 0.00 48 1017.4
20200922195510 27 159 4.8 11.3 0.00 0.00 0.00 49 1017.4
20200922195011 27 154 3.2 11.3 0.00 0.00 0.00 50 1017.4
20200922194512 27 168 3.2 9.7 0.00 0.00 0.00 49 1017.5
20200922194010 27 162 3.2 9.7 0.00 0.00 0.00 49 1017.6
20200922193511 27 142 4.8 12.9 0.00 0.00 0.00 50 1017.7
20200922193018 27 143 4.8 12.9 0.00 0.00 0.00 50 1017.8
20200922192510 27 135 4.8 12.9 0.00 0.00 0.00 49 1017.8
20200922192010 26 122 6.4 20.9 0.00 0.00 0.00 49 1017.9
20200922191520 27 121 4.8 20.9 0.00 0.00 0.00 50 1018.0
20200922191010 26 119 6.4 12.9 0.00 0.00 0.00 50 1018.1
20200922190512 26 123 6.4 12.9 0.00 0.00 0.00 51 1018.2
20200922190022 27 135 4.8 11.3 0.00 0.00 0.00 49 1018.2
20200922185514 26 133 4.8 11.3 0.00 0.00 0.00 51 1018.3
20200922185018 26 130 4.8 12.9 0.00 0.00 0.00 50 1018.4
20200922184523 26 133 4.8 12.9 0.00 0.00 0.00 49 1018.5
20200922184017 26 132 4.8 14.5 0.00 0.00 0.00 51 1018.5
20200922183510 26 130 6.4 14.5 0.00 0.00 0.00 51 1018.6
20200922183017 26 126 6.4 12.9 0.00 0.00 0.00 50 1018.6
20200922182511 26 122 6.4 16.1 0.00 0.00 0.00 50 1018.7
20200922182010 26 126 4.8 16.1 0.00 0.00 0.00 48 1018.7
20200922181518 26 143 3.2 9.7 0.00 0.00 0.00 50 1018.9
20200922181029 26 133 4.8 11.3 0.00 0.00 0.00 53 1018.9
20200922180511 26 130 4.8 11.3 0.00 0.00 0.00 52 1019.1
20200922180017 26 122 4.8 11.3 0.00 0.00 0.00 52 1019.2
20200922175521 26 118 4.8 11.3 0.00 0.00 0.00 55 1019.2
20200922175010 26 128 4.8 12.9 0.00 0.00 0.00 54 1019.3
20200922174514 26 132 4.8 12.9 0.00 0.00 0.00 55 1019.3
20200922174011 25 127 4.8 11.3 0.00 0.00 0.00 58 1019.4
20200922173510 25 116 4.8 11.3 0.00 0.00 0.00 58 1019.4
20200922173027 25 117 4.8 11.3 0.00 0.00 0.00 58 1019.4
20200922172510 25 120 4.8 11.3 0.00 0.00 0.00 59 1019.4
20200922172010 25 128 3.2 8.0 0.00 0.00 0.00 59 1019.5
20200922171520 25 154 1.6 8.0 0.00 0.00 0.00 58 1019.6
20200922171013 25 176 1.6 4.8 0.00 0.00 0.00 60 1019.7
20200922170512 25 239 3.2 6.4 0.00 0.00 0.00 61 1019.8
20200922170024 25 223 3.2 6.4 0.00 0.00 0.00 61 1019.8
20200922165512 24 146 1.6 6.4 0.00 0.00 0.00 62 1019.8
20200922165014 24 141 1.6 6.4 0.00 0.00 0.00 63 1019.8
20200922164518 23 127 3.2 6.4 0.00 0.00 0.00 63 1019.8
20200922164011 23 114 3.2 6.4 0.00 0.00 0.00 64 1019.9
20200922163519 23 116 3.2 6.4 0.00 0.00 0.00 65 1019.9
20200922163017 23 119 3.2 6.4 0.00 0.00 0.00 65 1020.0
20200922162512 23 125 1.6 6.4 0.00 0.00 0.00 65 1020.0
20200922162015 22 164 1.6 4.8 0.00 0.00 0.00 67 1020.0
20200922161510 22 161 1.6 6.4 0.00 0.00 0.00 67 1020.0
20200922161010 22 130 1.6 6.4 0.00 0.00 0.00 68 1020.0
20200922160510 22 153 1.6 4.8 0.00 0.00 0.00 69 1020.0
20200922160021 21 158 1.6 6.4 0.00 0.00 0.00 69 1020.1
20200922155512 21 121 1.6 6.4 0.00 0.00 0.00 70 1020.2
20200922155014 21 117 1.6 4.8 0.00 0.00 0.00 71 1020.1
20200922154518 21 179 1.6 4.8 0.00 0.00 0.00 72 1020.2
20200922154017 21 206 1.6 4.8 0.00 0.00 0.00 73 1020.3
20200922153511 20 176 1.6 4.8 0.00 0.00 0.00 74 1020.3
20200922153018 20 194 1.6 4.8 0.00 0.00 0.00 74 1020.3
20200922152510 20 175 1.6 6.4 0.00 0.00 0.00 75 1020.4
20200922152013 20 170 1.6 6.4 0.00 0.00 0.00 77 1020.4
20200922151519 19 175 1.6 6.4 0.00 0.00 0.00 79 1020.4
20200922151014 18 193 1.6 4.8 0.00 0.00 0.00 80 1020.4
20200922150511 18 239 1.6 6.4 0.00 0.00 0.00 82 1020.3
20200922150022 18 218 1.6 6.4 0.00 0.00 0.00 84 1020.4
20200922145519 17 172 1.6 4.8 0.00 0.00 0.00 86 1020.3
20200922145010 17 232 1.6 6.4 0.00 0.00 0.00 89 1020.3
20200922144510 16 244 1.6 6.4 0.00 0.00 0.00 89 1020.3
20200922144011 16 247 1.6 4.8 0.00 0.00 0.00 91 1020.2
20200922143511 16 244 1.6 6.4 0.00 0.00 0.00 93 1020.4
20200922143014 16 246 3.2 8.0 0.00 0.00 0.00 93 1020.4
20200922142510 15 244 1.6 8.0 0.00 0.00 0.00 93 1020.4
20200922142010 15 211 0.0 4.8 0.00 0.00 0.00 94 1020.4
20200922141519 15 157 0.0 1.6 0.00 0.00 0.00 95 1020.4
20200922140017 14 239 0.0 4.8 0.00 0.00 0.00 95 1020.4
20200922135511 14 231 1.6 4.8 0.00 0.00 0.00 95 1020.4
20200922135010 14 219 1.6 4.8 0.00 0.00 0.00 95 1020.4
20200922134522 13 161 0.0 1.6 0.00 0.00 0.00 95 1020.3
20200922134011 13 161 0.0 1.6 0.00 0.00 0.00 95 1020.3
20200922133510 13 161 0.0 1.6 0.00 0.00 0.00 95 1020.2
20200922133019 13 161 0.0 1.6 0.00 0.00 0.00 95 1020.2
20200922132509 12 161 0.0 1.6 0.00 0.00 0.00 95 1020.2
20200922132011 12 161 0.0 1.6 0.00 0.00 0.00 95 1020.3
20200922131520 12 161 0.0 1.6 0.00 0.00 0.00 95 1020.4
20200922131016 11 0 0.0 0.0 0.00 0.00 0.00 95 1020.4
20200922130517 11 0 0.0 0.0 0.00 0.00 0.00 94 1020.4
20200922130016 11 0 0.0 0.0 0.00 0.00 0.00 94 1020.4
20200922125512 10 0 0.0 0.0 0.00 0.00 0.00 94 1020.4
20200922125007 10 0 0.0 0.0 0.00 0.00 0.00 94 1020.4
20200922124522 10 0 0.0 0.0 0.00 0.00 0.00 94 1020.4
20200922124017 10 0 0.0 0.0 0.00 0.00 0.00 94 1020.4
20200922123510 10 0 0.0 0.0 0.00 0.00 0.00 93 1020.5
20200922123024 10 0 0.0 0.0 0.00 0.00 0.00 93 1020.4
20200922122518 9 0 0.0 0.0 0.00 0.00 0.00 93 1020.4
20200922122008 9 0 0.0 0.0 0.00 0.00 0.00 93 1020.4
20200922121523 9 0 0.0 0.0 0.00 0.00 0.00 93 1020.4
20200922121008 9 0 0.0 0.0 0.00 0.00 0.00 92 1020.3
20200922120510 9 0 0.0 0.0 0.00 0.00 0.00 92 1020.2
20200922120019 9 0 0.0 0.0 0.00 0.00 0.00 92 1020.1
20200922115510 9 0 0.0 0.0 0.00 0.00 0.00 92 1020.0
20200922115015 9 0 0.0 0.0 0.00 0.00 0.00 92 1020.0
20200922114509 10 0 0.0 0.0 0.00 0.00 0.00 92 1020.0
20200922114010 10 0 0.0 0.0 0.00 0.00 0.00 92 1019.9
20200922113511 10 0 0.0 0.0 0.00 0.00 0.00 92 1019.9
20200922113017 10 0 0.0 0.0 0.00 0.00 0.00 92 1020.0
20200922112510 10 0 0.0 0.0 0.00 0.00 0.00 92 1019.9
20200922112016 10 0 0.0 0.0 0.00 0.00 0.00 92 1019.9
20200922111507 10 0 0.0 0.0 0.00 0.00 0.00 92 1019.8
20200922111011 10 0 0.0 0.0 0.00 0.00 0.00 92 1019.7
20200922110517 10 0 0.0 0.0 0.00 0.00 0.00 92 1019.7
20200922110017 10 0 0.0 0.0 0.00 0.00 0.00 92 1019.6
20200922105507 10 0 0.0 0.0 0.00 0.00 0.00 92 1019.6
20200922105009 10 0 0.0 0.0 0.00 0.00 0.00 92 1019.6
20200922104515 10 0 0.0 0.0 0.00 0.00 0.00 92 1019.6
20200922104007 10 0 0.0 0.0 0.00 0.00 0.00 92 1019.6
20200922103510 10 0 0.0 0.0 0.00 0.00 0.00 92 1019.6
20200922103020 10 0 0.0 0.0 0.00 0.00 0.00 92 1019.6
20200922102510 10 0 0.0 0.0 0.00 0.00 0.00 92 1019.6
20200922102016 10 0 0.0 0.0 0.00 0.00 0.00 92 1019.6
20200922101519 10 0 0.0 0.0 0.00 0.00 0.00 92 1019.5
20200922101015 10 0 0.0 0.0 0.00 0.00 0.00 92 1019.5
20200922100518 11 0 0.0 0.0 0.00 0.00 0.00 92 1019.5
20200922100019 11 0 0.0 0.0 0.00 0.00 0.00 91 1019.5
20200922095509 11 0 0.0 0.0 0.00 0.00 0.00 92 1019.5
20200922095009 11 0 0.0 0.0 0.00 0.00 0.00 92 1019.5
20200922094507 11 0 0.0 0.0 0.00 0.00 0.00 92 1019.5
20200922094009 11 0 0.0 0.0 0.00 0.00 0.00 91 1019.5
20200922093510 11 0 0.0 0.0 0.00 0.00 0.00 91 1019.5
20200922093023 11 161 0.0 1.6 0.00 0.00 0.00 91 1019.5
20200922092508 11 161 0.0 1.6 0.00 0.00 0.00 91 1019.5
20200922092008 11 0 0.0 0.0 0.00 0.00 0.00 91 1019.5
20200922091514 11 0 0.0 0.0 0.00 0.00 0.00 91 1019.5
20200922091014 11 0 0.0 0.0 0.00 0.00 0.00 91 1019.5
20200922090507 11 0 0.0 0.0 0.00 0.00 0.00 91 1019.5
20200922090021 11 0 0.0 0.0 0.00 0.00 0.00 91 1019.4
20200922085511 11 0 0.0 0.0 0.00 0.00 0.00 91 1019.4
20200922085008 11 0 0.0 0.0 0.00 0.00 0.00 91 1019.5
20200922084517 11 0 0.0 0.0 0.00 0.00 0.00 91 1019.6
20200922084012 11 0 0.0 0.0 0.00 0.00 0.00 91 1019.4
20200922083516 11 0 0.0 0.0 0.00 0.00 0.00 90 1019.4
20200922083009 11 0 0.0 0.0 0.00 0.00 0.00 90 1019.5
20200922082511 11 0 0.0 0.0 0.00 0.00 0.00 90 1019.6
20200922082010 11 0 0.0 0.0 0.00 0.00 0.00 90 1019.5
20200922081513 11 0 0.0 0.0 0.00 0.00 0.00 90 1019.5
20200922081014 11 0 0.0 0.0 0.00 0.00 0.00 90 1019.5
20200922080509 11 0 0.0 0.0 0.00 0.00 0.00 90 1019.5
20200922080017 11 0 0.0 0.0 0.00 0.00 0.00 90 1019.5
20200922075508 12 0 0.0 0.0 0.00 0.00 0.00 89 1019.5
20200922075008 12 0 0.0 0.0 0.00 0.00 0.00 90 1019.5
20200922074519 12 0 0.0 0.0 0.00 0.00 0.00 90 1019.5
20200922074008 12 0 0.0 0.0 0.00 0.00 0.00 89 1019.5
20200922073508 12 0 0.0 0.0 0.00 0.00 0.00 89 1019.5
20200922073018 12 0 0.0 0.0 0.00 0.00 0.00 90 1019.5
20200922072507 12 0 0.0 0.0 0.00 0.00 0.00 90 1019.5
20200922072009 12 0 0.0 0.0 0.00 0.00 0.00 89 1019.4
20200922071516 12 0 0.0 0.0 0.00 0.00 0.00 89 1019.4
20200922071009 12 0 0.0 0.0 0.00 0.00 0.00 89 1019.5
20200922070507 12 0 0.0 0.0 0.00 0.00 0.00 89 1019.4
20200922070017 12 0 0.0 0.0 0.00 0.00 0.00 89 1019.4
20200922065510 12 0 0.0 0.0 0.00 0.00 0.00 89 1019.5
20200922065011 12 0 0.0 0.0 0.00 0.00 0.00 89 1019.4
20200922064512 12 0 0.0 0.0 0.00 0.00 0.00 89 1019.4
20200922064008 12 0 0.0 0.0 0.00 0.00 0.00 88 1019.4
20200922063512 13 0 0.0 0.0 0.00 0.00 0.00 88 1019.4
20200922063017 13 0 0.0 0.0 0.00 0.00 0.00 88 1019.4
20200922062514 13 0 0.0 0.0 0.00 0.00 0.00 88 1019.5
20200922062006 13 0 0.0 0.0 0.00 0.00 0.00 88 1019.5
20200922061515 13 0 0.0 0.0 0.00 0.00 0.00 88 1019.5
20200922061007 13 0 0.0 0.0 0.00 0.00 0.00 87 1019.5
20200922060511 13 0 0.0 0.0 0.00 0.00 0.00 87 1019.5
20200922060019 13 0 0.0 0.0 0.00 0.00 0.00 87 1019.4
20200922055514 13 0 0.0 0.0 0.00 0.00 0.00 87 1019.5
20200922055008 13 0 0.0 0.0 0.00 0.00 0.00 86 1019.6
20200922054517 13 0 0.0 0.0 0.00 0.00 0.00 86 1019.6
20200922054023 13 0 0.0 0.0 0.00 0.00 0.00 86 1019.6
20200922053507 13 0 0.0 0.0 0.00 0.00 0.00 85 1019.5
20200922053011 13 0 0.0 0.0 0.00 0.00 0.00 85 1019.6
20200922052506 14 0 0.0 0.0 0.00 0.00 0.00 85 1019.6
20200922052010 14 0 0.0 0.0 0.00 0.00 0.00 85 1019.5
20200922051508 14 0 0.0 0.0 0.00 0.00 0.00 85 1019.5
20200922051007 14 0 0.0 0.0 0.00 0.00 0.00 84 1019.5
20200922050509 14 0 0.0 0.0 0.00 0.00 0.00 84 1019.4
20200922050019 14 0 0.0 0.0 0.00 0.00 0.00 83 1019.4
20200922045511 15 0 0.0 0.0 0.00 0.00 0.00 82 1019.4
20200922045010 15 0 0.0 0.0 0.00 0.00 0.00 82 1019.4
20200922044514 15 0 0.0 0.0 0.00 0.00 0.00 81 1019.3
20200922044008 15 0 0.0 0.0 0.00 0.00 0.00 81 1019.3
20200922043512 15 0 0.0 0.0 0.00 0.00 0.00 81 1019.3
20200922043018 15 0 0.0 0.0 0.00 0.00 0.00 80 1019.4
20200922042508 15 0 0.0 0.0 0.00 0.00 0.00 80 1019.2
20200922042006 16 0 0.0 0.0 0.00 0.00 0.00 79 1019.2
20200922041513 16 0 0.0 0.0 0.00 0.00 0.00 79 1019.3
20200922041007 16 0 0.0 0.0 0.00 0.00 0.00 79 1019.3
20200922040508 16 0 0.0 0.0 0.00 0.00 0.00 78 1019.2
20200922040020 16 0 0.0 0.0 0.00 0.00 0.00 78 1019.2
20200922035510 16 0 0.0 0.0 0.00 0.00 0.00 79 1019.2
20200922035011 16 0 0.0 0.0 0.00 0.00 0.00 79 1019.2
20200922034527 16 161 0.0 1.6 0.00 0.00 0.00 79 1019.2
20200922034009 16 161 0.0 1.6 0.00 0.00 0.00 79 1019.2
20200922033510 17 161 0.0 1.6 0.00 0.00 0.00 79 1019.2
20200922033015 17 161 0.0 1.6 0.00 0.00 0.00 79 1019.1
20200922032508 17 161 0.0 3.2 0.00 0.00 0.00 79 1019.1
20200922032010 17 160 0.0 3.2 0.00 0.00 0.00 79 1019.1
20200922031510 17 161 0.0 3.2 0.00 0.00 0.00 78 1019.0
20200922031010 17 162 0.0 3.2 0.00 0.00 0.00 78 1019.1
20200922030506 17 165 0.0 3.2 0.00 0.00 0.00 78 1019.0
20200922030018 17 165 0.0 3.2 0.00 0.00 0.00 78 1018.9
20200922025510 17 165 0.0 3.2 0.00 0.00 0.00 78 1018.9
20200922025009 17 165 0.0 3.2 0.00 0.00 0.00 77 1018.9
20200922024512 17 164 0.0 3.2 0.00 0.00 0.00 77 1018.9
20200922024009 17 160 0.0 3.2 0.00 0.00 0.00 77 1018.8
20200922023513 17 165 0.0 3.2 0.00 0.00 0.00 77 1018.8
20200922023019 17 166 0.0 3.2 0.00 0.00 0.00 77 1018.8
20200922022508 17 163 0.0 1.6 0.00 0.00 0.00 78 1018.8
20200922022007 17 163 0.0 4.8 0.00 0.00 0.00 78 1018.8
20200922021513 17 157 0.0 4.8 0.00 0.00 0.00 78 1018.7
20200922021008 17 151 0.0 4.8 0.00 0.00 0.00 78 1018.7
20200922020507 17 149 0.0 4.8 0.00 0.00 0.00 78 1018.7
20200922020021 17 162 0.0 3.2 0.00 0.00 0.00 78 1018.7
20200922015508 17 162 0.0 3.2 0.00 0.00 0.00 78 1018.6
20200922015018 17 162 0.0 3.2 0.00 0.00 0.00 78 1018.7
20200922014516 17 162 0.0 3.2 0.00 0.00 0.00 78 1018.6
20200922014009 17 159 1.6 3.2 0.00 0.00 0.00 78 1018.5
20200922013512 17 161 1.6 4.8 0.00 0.00 0.00 79 1018.6
20200922013018 17 168 0.0 4.8 0.00 0.00 0.00 79 1018.5
20200922012510 17 171 0.0 3.2 0.00 0.00 0.00 79 1018.5
20200922012011 17 172 0.0 3.2 0.00 0.00 0.00 79 1018.6
20200922011511 17 168 1.6 4.8 0.00 0.00 0.00 79 1018.5
20200922011008 18 167 1.6 4.8 0.00 0.00 0.00 79 1018.4
20200922010506 18 165 1.6 6.4 0.00 0.00 0.00 79 1018.5
20200922010014 18 172 1.6 6.4 0.00 0.00 0.00 78 1018.5
20200922005508 18 186 0.0 3.2 0.00 0.00 0.00 76 1018.5
20200922005007 18 0 0.0 0.0 0.00 0.00 0.00 75 1018.6
20200922004512 18 0 0.0 0.0 0.00 0.00 0.00 74 1018.6
20200922004011 19 0 0.0 0.0 0.00 0.00 0.00 73 1018.7
20200922003514 19 0 0.0 0.0 0.00 0.00 0.00 72 1018.7
20200922003019 20 0 0.0 0.0 0.00 0.00 0.00 71 1018.7
20200922002507 20 0 0.0 0.0 0.00 0.00 0.00 71 1018.7
20200922002020 20 0 0.0 0.0 0.00 0.00 0.00 69 1018.7
20200922001517 21 0 0.0 0.0 0.00 0.00 0.00 69 1018.6
20200922001008 21 186 0.0 1.6 0.00 0.00 0.00 68 1018.6
20200922000511 21 186 0.0 1.6 0.00 0.00 0.00 67 1018.5
20200922000010 21 186 0.0 1.6 0.00 0.00 0.00 67 1018.5
20200921235512 22 186 0.0 1.6 0.00 0.00 0.00 66 1018.5
20200921235007 22 186 0.0 1.6 0.00 0.00 0.00 65 1018.5
20200921234519 22 0 0.0 0.0 0.00 0.00 0.00 65 1018.5
20200921234008 22 0 0.0 0.0 0.00 0.00 0.00 64 1018.5
20200921233509 22 186 0.0 3.2 0.00 0.00 0.00 64 1018.4
20200921233011 22 186 0.0 3.2 0.00 0.00 0.00 63 1018.4
20200921232513 22 188 0.0 1.6 0.00 0.00 0.00 63 1018.4
20200921232012 22 188 0.0 1.6 0.00 0.00 0.00 62 1018.4
20200921231515 23 188 0.0 1.6 0.00 0.00 0.00 62 1018.4
20200921231009 23 188 0.0 3.2 0.00 0.00 0.00 62 1018.4
20200921230509 23 190 0.0 3.2 0.00 0.00 0.00 61 1018.4
20200921230007 23 228 0.0 4.8 0.00 0.00 0.00 61 1018.3
20200921225510 23 232 1.6 6.4 0.00 0.00 0.00 62 1018.3
20200921225010 23 223 1.6 6.4 0.00 0.00 0.00 62 1018.2
20200921224516 23 214 1.6 6.4 0.00 0.00 0.00 62 1018.2
20200921224008 23 205 1.6 6.4 0.00 0.00 0.00 62 1018.2
20200921223511 23 201 1.6 4.8 0.00 0.00 0.00 62 1018.2
20200921223014 23 237 1.6 6.4 0.00 0.00 0.00 61 1018.2
20200921222507 23 246 1.6 9.7 0.00 0.00 0.00 61 1018.3
20200921222009 23 239 1.6 9.7 0.00 0.00 0.00 60 1018.3
20200921221513 23 220 1.6 8.0 0.00 0.00 0.00 61 1018.3
20200921221008 23 230 1.6 8.0 0.00 0.00 0.00 60 1018.3
20200921220509 23 245 3.2 8.0 0.00 0.00 0.00 59 1018.2
20200921220018 23 252 1.6 8.0 0.00 0.00 0.00 59 1018.2
20200921215508 23 253 3.2 11.3 0.00 0.00 0.00 59 1018.2